Location: Unspecified
(48.5670°N, 0.0000°E)
Time: 09:57:46
(UTC+00:00)

Transit 4A - Visible Passes

Search period start: 25 August 2019 00:00
Search period end: 04 September 2019 00:00
Orbit: 864 x 981 km, 66.8° (Epoch: 25 August)

Date Brightness Start Highest point End Pass type
(mag) Time Alt. Az. Time Alt. Az. Time Alt. Az.
25 Aug 8.6 01:25:12 10° NNW 01:31:20 53° NE 01:37:15 10° SE visible
25 Aug 8.4 03:11:58 10° NW 03:17:30 35° WSW 03:21:51 15° S visible
25 Aug 10.5 20:10:41 10° WNW 20:15:29 21° NNW 20:20:15 10° NNE visible
25 Aug 10.6 22:01:04 10° NNW 22:04:26 14° N 22:07:45 10° NNE visible
25 Aug 10.0 23:48:21 10° NNW 23:53:17 23° NNE 23:58:06 10° E visible
26 Aug 8.0 01:34:32 10° NNW 01:40:48 72° NE 01:44:20 26° SE visible
26 Aug 8.8 03:21:45 10° NW 03:26:36 25° WSW 03:27:40 23° WSW visible
26 Aug 10.5 20:21:00 10° WNW 20:25:19 18° NNW 20:29:37 10° NNE visible
26 Aug 10.5 22:10:53 10° NNW 22:14:24 15° N 22:17:50 10° NE visible
26 Aug 9.7 23:57:41 10° NNW 00:03:02 28° NNE 00:08:05 11° E visible
27 Aug 7.7 01:43:55 10° NW 01:50:10 85° WSW 01:51:28 58° SSE visible
27 Aug 9.3 03:31:52 10° WNW 03:34:52 17° W 03:34:52 17° W visible
27 Aug 10.5 20:31:19 10° NW 20:35:13 16° NNW 20:39:05 10° NNE visible
27 Aug 10.4 22:20:32 10° NNW 22:24:19 16° NNE 22:28:03 10° NE visible
28 Aug 9.2 00:07:00 10° NNW 00:12:42 35° NE 00:15:46 22° E visible
28 Aug 7.9 01:53:21 10° NW 01:59:11 61° WSW 01:59:11 61° WSW visible
28 Aug 10.5 20:41:35 10° NW 20:45:09 15° N 20:48:40 10° NNE visible
28 Aug 10.3 22:30:02 10° NNW 22:34:13 18° NNE 22:38:20 10° ENE visible
29 Aug 8.8 00:16:18 10° NNW 00:22:17 45° NE 00:23:46 38° E visible
29 Aug 8.6 02:02:52 10° NW 02:07:12 37° W 02:07:12 37° W visible
29 Aug 10.4 20:51:44 10° NW 20:55:06 14° N 20:58:26 10° NNE visible
29 Aug 10.0 22:39:26 10° NNW 22:44:03 21° NNE 22:48:32 10° ENE visible
30 Aug 8.2 00:25:37 10° NNW 00:31:48 59° NE 00:31:59 59° ENE visible
30 Aug 9.3 02:12:31 10° NW 02:15:26 23° WNW 02:15:26 23° WNW visible
30 Aug 10.3 19:11:27 10° WNW 19:16:04 20° NNW 19:20:38 10° NNE visible
30 Aug 10.4 21:01:41 10° NNW 21:05:04 15° N 21:08:23 10° NE visible
30 Aug 9.7 22:48:46 10° NNW 22:53:50 25° NNE 22:56:52 17° ENE visible
31 Aug 8.1 00:34:57 10° NW 00:40:20 66° NNW 00:40:20 66° NNW visible
31 Aug 9.8 02:22:24 10° WNW 02:23:48 15° WNW 02:23:48 15° WNW visible
31 Aug 10.3 19:21:46 10° WNW 19:25:56 18° NNW 19:30:03 10° NNE visible
31 Aug 10.3 21:11:27 10° NNW 21:15:00 15° N 21:18:32 10° NE visible
31 Aug 9.3 22:58:05 10° NNW 23:03:33 30° NE 23:05:20 26° ENE visible
01 Sep 8.5 00:44:21 10° NW 00:48:48 48° NW 00:48:48 48° NW visible
01 Sep 10.3 19:32:05 10° NW 19:35:50 16° NNW 19:39:32 10° NNE visible
01 Sep 10.2 21:21:01 10° NNW 21:24:56 17° NNE 21:28:46 10° NE visible
01 Sep 8.9 23:07:24 10° NNW 23:13:11 38° NE 23:13:53 37° NE visible
02 Sep 9.0 00:53:49 10° NW 00:57:20 33° WNW 00:57:20 33° WNW visible
02 Sep 10.3 19:42:20 10° NW 19:45:46 15° N 19:49:11 10° NNE visible
02 Sep 10.0 21:30:29 10° NNW 21:34:49 19° NNE 21:39:01 10° ENE visible
02 Sep 8.5 23:16:42 10° NNW 23:22:29 49° NE 23:22:29 49° NE visible
03 Sep 9.5 01:03:23 10° NW 01:05:58 23° WNW 01:05:58 23° WNW visible
03 Sep 10.3 19:52:24 10° NNW 19:55:44 14° N 19:59:01 10° NNE visible
03 Sep 9.8 21:39:52 10° NNW 21:44:38 22° NNE 21:47:40 16° ENE visible
03 Sep 8.4 23:26:02 10° NNW 23:31:10 56° N 23:31:10 56° N visible
